Flag for U.S.A. Weather past 2 weeks in Jackson, Mississippi, U.S.A.

Now
63 °F

Sunny.


Feels Like: 63 °F
Forecast: 57 / 81 °F
Wind: 5 mph from Northeast

Location: Hawkins Field


UV Index: 7 (High)

Visibility: 10 mi


Pressure: 29.98 "Hg

Humidity: 70%

Dew point: 53 °F

Location of JacksonLocation

Historic Weather in Jackson

°F

Jackson temperature yesterday

Maximum temperature yesterday: 77 °F (at 3:53 PM)
Minimum temperature yesterday: 62 °F (at 2:53 AM)
Average temperature yesterday: 68 °F

Past Weeks' High & Low Weather Summary

 TemperatureHumidityPressure
High83 °F (Apr 13, 2:53 PM)94% (Apr 12, 8:00 AM)30.26 "Hg (Apr 12, 8:00 AM)
Low37 °F (Apr 16, 5:53 AM)25% (Apr 16, 2:53 PM)29.70 "Hg (Apr 14, 2:53 AM)
Average62 °F65%30.07 "Hg
* Reported Apr 8 6:53 AM — Apr 23 6:53 AM, Jackson, Weather by CustomWeather, © 2014

Note: Actual official high and low records may vary slightly from our data, if they occured in-between our weather recording intervals... More about our weather records

Advertising

Historic Weather Conditions — Data for Previous 24 hours

 ConditionsComfort  
Time TempWeatherWind HumidityBarometerVisibility
6:53 AM
Apr 23
56 °FFog.5 mph90%29.97 "Hg6 mi
5:53 AM57 °FClear.No wind90%29.95 "Hg7 mi
4:53 AM59 °FFog.No wind90%29.95 "Hg4 mi
3:53 AM58 °FFog.No wind90%29.93 "Hg4 mi
2:53 AM60 °FFog.No wind90%29.92 "Hg6 mi
1:53 AM63 °FClear.3 mph84%29.93 "Hg9 mi
12:53 AM64 °FClear.5 mph84%29.93 "Hg10 mi
11:53 PM
Apr 22
64 °FClear.No wind87%29.93 "Hg10 mi
10:53 PM65 °FClear.No wind85%29.92 "Hg10 mi
9:53 PM67 °FClear.No wind79%29.92 "Hg10 mi
8:53 PM70 °FClear.No wind73%29.90 "Hg10 mi
7:53 PM72 °FPassing clouds.No wind66%29.88 "Hg10 mi
6:53 PM75 °FSunny.N/A58%29.87 "Hg10 mi
5:53 PM77 °FPassing clouds.N/A54%29.87 "Hg10 mi
4:53 PM77 °FBroken clouds.5 mph54%29.88 "Hg10 mi
3:53 PM77 °FBroken clouds.8 mph56%29.88 "Hg10 mi
2:53 PM74 °FBroken clouds.6 mph62%29.90 "Hg10 mi
1:53 PM73 °FBroken clouds.9 mph64%29.91 "Hg10 mi
12:53 PM70 °FMore clouds than sun.7 mph73%29.92 "Hg10 mi
12:04 PM70 °FCloudy.6 mph78%29.95 "Hg10 mi
11:53 AM68 °FMostly cloudy.5 mph82%29.93 "Hg9 mi
10:53 AM67 °FLow clouds.6 mph85%29.93 "Hg6 mi
9:53 AM65 °FFog.6 mph91%29.93 "Hg5 mi
8:53 AM65 °FFog.6 mph87%29.93 "Hg5 mi
Weather by CustomWeather, © 2014

See weather overview